Regional Weather Roundup
Issued by NWS State College, PA

Home | Current Version | Previous Version | Text Only | Print | Product List | Glossary On
Versions: 1 2 3 4 5 6 7 8 9 10 11 12 13 14 15 16 17 18 19 20 21 22 23 24 25 26 27 28 29 30 31 32 33 34 35 36 37 38 39 40 41 42 43 44 45 46 47 48 49 50
187
ASUS41 KCTP 172003
RWRCTP

REGIONAL WEATHER ROUNDUP
NATIONAL WEATHER SERVICE STATE COLLEGE PA
300 PM EST SAT FEB 17 2018

Note: "fair" indicates few or no clouds below 12,000 feet with no
significant weather and/or obstructions to visibility.

* = STATION THAT DOES NOT REPORT PRECIPITATION /E.G. RAIN...SNOW...ETC/
    THUNDER OR FOG.

PAZ002>004-007>009-013>016-020>023-029>032-172100-
WESTERN PENNSYLVANIA

CITY           SKY/WX    TMP DP  RH WIND       PRES   REMARKS
ERIE           PTSUNNY   31  19  61 S10       30.05F
MEADVILLE      PTSUNNY   28  19  69 VRB5      30.01F
FRANKLIN*      CLOUDY    28  20  71 SE7       30.02F
NEW CASTLE     LGT SNOW  31  25  78 SE5       30.04F
BEAVER COUNTY  LGT SNOW  28  27  93 SE7       30.03F VSB 1
BUTLER*        LGT SNOW  29  27  92 SE6       30.04S VSB 1
PITTSBURGH INT LGT SNOW  31  30  96 S8        30.02F VSB 3/4
PITTSBURGH     LGT SNOW  33  28  81 CALM      30.03F
INDIANA*       MOSUNNY   32  30  93 S14       30.08F FOG
LATROBE        LGT SNOW  36  28  75 S9        30.06F
WASHINGTON CO* MIX PCPN  33  28  81 SE3       30.06F
$$

PAZ004>006-010>012-017>019-024>028-033>037-041-042-045-046-049>053-172100-
CENTRAL PENNSYLVANIA

CITY           SKY/WX    TMP DP  RH WIND       PRES   REMARKS
BRADFORD       CLOUDY    28  18  66 S12       29.98F
DUBOIS         CLOUDY    30  20  66 SE9       30.00F
CLEARFIELD     LGT SNOW  31  22  69 SE9       30.06F
JOHNSTOWN      SNOW      26  24  92 S7        30.01F VSB 1/4
ALTOONA        SNOW      30  24  78 S8        30.10S VSB 1/2
STATE COLLEGE  LGT SNOW  32  23  69 SW9G23    30.10F
WILLIAMSPORT   PTSUNNY   35  20  54 E8        30.16F
SELINSGROVE    CLOUDY    34  21  59 S9        30.19F
FT INDIANTOWN  FAIR      35  22  59 SE9       30.18F
CAPITAL CITY   CLOUDY    39  23  52 SE15G25   30.18F
HARRISBURG     CLOUDY    38  24  57 S10       30.18F
YORK           CLOUDY    37  23  56 SE10      30.22F
$$

PAZ038>040-043-044-047-048-054-055-060>062-067>071-172100-
EASTERN PENNSYLVANIA

CITY           SKY/WX    TMP DP  RH WIND       PRES   REMARKS
SCRANTON       FAIR      34  18  52 VRB7      30.16F
MOUNT POCONO   NOT AVBL
ALLENTOWN      PTSUNNY   39  19  44 S9        30.26F
QUAKERTOWN*    PTCLDY    37  19  48 S6        30.26F
READING        CLOUDY    37  20  50 S9        30.25F
LANCASTER      CLOUDY    37  23  56 S9        30.24F
COATESVILLE    FAIR      36 N/A N/A SE5       30.26F
POTTSTOWN      CLOUDY    37  19  48 SE5       30.29F
BLUE BELL      CLOUDY    37  23  56 S5        30.28F
DOYLESTOWN     CLOUDY    38  21  50 S8        30.26S
WILLOW GROVE   NOT AVBL
NORTH PHILA    PTSUNNY   42  25  50 E6        30.29S
PHILADELPHIA   CLOUDY    41  24  51 S7        30.29R
$$




USA.gov is the U.S. government's official web portal to all federal, state and local government web resources and services.